Flag for Marshall Islands Weather past 2 weeks in Kwajalein, Marshall Islands

81 °F


Feels Like: 86 °F
Forecast: 81 / 85 °F
Wind: 7 mph from West

Location: Kwajalein / Bucholz

Current Time: Oct 14, 2015 at 4:54:49 AM

Latest Report: Oct 14, 2015 at 4:20 AM

Visibility: 10 mi

Pressure: 29.79 "Hg

Humidity: 81%

Dew point: 74 °F

Location of KwajaleinLocation

Historic Weather in Kwajalein — Graph


Kwajalein temperature yesterday

Maximum temperature yesterday: 85 °F (at 5:00 PM)
Minimum temperature yesterday: 78 °F (at 5:00 AM)
Average temperature yesterday: 81 °F

Past Weeks' High & Low Weather Summary

High88 °F (Oct 1, 1:00 PM)96% (Oct 11, 6:00 PM)29.89 "Hg (Oct 11, 6:00 PM)
Low76 °F (Oct 7, 3:20 AM)65% (Sep 30, 2:20 PM)29.65 "Hg (Oct 10, 4:20 AM)
Average82 °F78%29.78 "Hg
* Reported Sep 29 3:00 AM — Oct 14 3:40 AM, Kwajalein, Weather by CustomWeather, © 2015

Note: Actual official high and low records may vary slightly from our data, if they occured in-between our weather recording intervals... More about our weather records


Kwajalein weather history for previous 24 hours

Time TempWeatherWind HumidityBarometerVisibility
3:40 AM
Wed, Oct 14
80 °FClear.6 mph83%29.79 "Hg10 mi
3:20 AM79 °FClear.5 mph85%29.79 "Hg7 mi
3:00 AM79 °FClear.3 mph86%29.80 "Hg7 mi
2:20 AM78 °FClear.No wind88%29.82 "Hg7 mi
2:00 AM78 °FClear.No wind86%29.82 "Hg10 mi
1:40 AM78 °FClear.No wind86%29.83 "Hg7 mi
1:20 AM78 °FClear.No wind85%29.84 "Hg7 mi
1:00 AM79 °FClear.No wind85%29.85 "Hg10 mi
12:20 AM79 °FClear.5 mph86%29.86 "Hg7 mi
12:00 AM79 °FClear.6 mph85%29.87 "Hg10 mi
11:20 PM
Tue, Oct 13
80 °FDrizzle. Mostly cloudy.5 mph81%29.87 "Hg7 mi
11:00 PM81 °FRain. Partly cloudy.8 mph77%29.88 "Hg7 mi
10:20 PM82 °FPartly cloudy.5 mph74%29.88 "Hg10 mi
10:00 PM82 °FPassing clouds.6 mph74%29.87 "Hg10 mi
9:20 PM82 °FClear.6 mph74%29.87 "Hg10 mi
9:00 PM82 °FClear.8 mph73%29.86 "Hg10 mi
8:40 PM82 °FClear.7 mph71%29.86 "Hg10 mi
8:20 PM82 °FClear.7 mph70%29.85 "Hg10 mi
8:00 PM83 °FClear.7 mph70%29.85 "Hg10 mi
7:20 PM83 °FClear.12 mph71%29.83 "Hg10 mi
7:00 PM83 °FClear.9 mph72%29.82 "Hg10 mi
6:40 PM83 °FPassing clouds.14 mph72%29.81 "Hg10 mi
6:20 PM84 °FBroken clouds.8 mph71%29.80 "Hg10 mi
6:00 PM84 °FPartly sunny.8 mph70%29.80 "Hg10 mi
5:20 PM85 °FSunny.12 mph68%29.78 "Hg10 mi
5:00 PM85 °FSunny.13 mph68%29.78 "Hg10 mi
4:20 PM84 °FSunny.12 mph69%29.78 "Hg10 mi
4:00 PM84 °FSunny.12 mph69%29.78 "Hg10 mi
3:20 PM84 °FSunny.13 mph69%29.78 "Hg10 mi
3:00 PM83 °FSunny.12 mph71%29.78 "Hg10 mi
2:20 PM83 °FLight rain. Sunny.10 mph72%29.79 "Hg10 mi
2:00 PM83 °FSunny.10 mph72%29.79 "Hg10 mi
1:20 PM84 °FBroken clouds.15 mph72%29.81 "Hg10 mi
1:00 PM84 °FScattered clouds.14 mph71%29.81 "Hg10 mi
12:20 PM83 °FSunny.10 mph72%29.83 "Hg10 mi
12:00 PM83 °FSunny.12 mph73%29.84 "Hg10 mi
11:40 AM82 °FSunny.14 mph74%29.85 "Hg10 mi
11:20 AM82 °FSunny.14 mph77%29.85 "Hg10 mi
11:00 AM81 °FSunny.16 mph79%29.85 "Hg10 mi
10:40 AM80 °FSunny.14 mph81%29.85 "Hg10 mi
10:20 AM80 °FSunny.17 mph82%29.85 "Hg10 mi
10:00 AM80 °FSunny.14 mph83%29.84 "Hg10 mi
9:20 AM80 °FScattered clouds.18 mph82%29.85 "Hg10 mi
9:00 AM80 °FScattered clouds.14 mph82%29.85 "Hg10 mi
8:20 AM80 °FSunny.18 mph84%29.84 "Hg7 mi
8:00 AM79 °FSunny.20 mph85%29.83 "Hg10 mi
7:20 AM79 °FScattered clouds.21 mph89%29.82 "Hg7 mi
7:00 AM79 °FSunny.21 mph86%29.81 "Hg10 mi
6:20 AM79 °FPartly cloudy.17 mph85%29.79 "Hg7 mi
6:00 AM79 °FPassing clouds.21 mph84%29.78 "Hg7 mi
5:40 AM79 °FPassing clouds.15 mph84%29.78 "Hg10 mi
5:20 AM79 °FLight rain. Mostly cloudy.14 mph87%29.78 "Hg10 mi
5:00 AM78 °FPartly cloudy.17 mph90%29.78 "Hg7 mi
4:20 AM79 °FPassing clouds.12 mph88%29.78 "Hg10 mi
4:00 AM79 °FLight rain. Mostly cloudy.12 mph86%29.78 "Hg7 mi
Weather by CustomWeather, © 2015

See weather overviewHow to use our weather pages